Wind_Speed
5 5 10 10 12 7 3 3 2 2 5 4 9 15 12 21 18 19 22 24 26 32 36 35 33 30 30 28 26 26 28 28 27 28 30 33 36 36 34 32 30 32 31 33
2 12 8 3 8 12 9 12 16 4 8 5 7 20 10 13 16 24 29 32 34 37 38 33 32 35 31 33 30 26 24 26 30 31 32 33 34 36 33 33 32 30 29 33
12 3 14 8 4 5 5 6 4 9 5 6 6 21 11 7 16 29 29 34 33 33 37 35 31 28 28 22 26 26 24 25 32 34 34 34 33 34 31 30 33 31 33 36
10 16 3 5 12 7 14 7 6 4 2 9 3 11 14 10 17 14 24 30 35 33 34 29 22 18 9 9 12 18 22 23 25 27 30 31 32 34 31 33 31 33 35 31
7 7 13 9 11 8 7 6 8 6 5 5 5 5 9 1 9 14 16 28 30 29 24 18 5 7 5 3 3 3 1 5 10 16 20 22 25 28 30 33 33 34 36 33
3 1 6 5 6 13 3 2 3 3 3 8 6 7 11 4 6 3 7 19 19 14 7 16 14 12 11 9 7 5 2 0 2 5 8 11 15 21 26 29 32 35 37 36
6 6 2 4 4 2 4 4 2 3 5 8 3 7 15 12 5 9 15 18 6 14 16 16 14 13 12 9 8 6 5 5 5 5 6 8 10 14 19 22 24 27 31 34
11 8 13 9 14 7 10 9 5 4 4 4 2 6 6 8 15 17 18 11 15 18 20 19 18 17 16 15 13 12 11 10 10 10 9 11 12 14 15 17 19 23 28 31
8 9 2 3 5 15 5 12 13 2 1 5 5 7 9 8 7 7 3 15 21 21 19 18 17 17 17 16 16 15 14 14 15 16 15 15 15 16 18 19 19 21 23 24
5 1 4 6 3 4 6 7 4 6 6 7 2 6 9 5 6 3 10 20 24 21 20 18 17 15 15 14 14 14 15 17 17 18 19 20 20 19 20 21 23 24 25 24
5 2 2 5 11 15 5 6 3 2 3 2 3 6 6 4 5 9 15 19 21 19 18 17 16 15 14 14 14 15 16 18 19 20 21 22 22 22 22 23 23 26 27 28
19 4 5 13 1 5 16 12 16 6 5 4 2 12 2 3 7 27 22 21 19 16 15 14 14 14 14 15 16 17 18 20 21 23 24 25 27 28 28 27 28 27 28 28
13 9 4 4 3 1 9 11 14 14 2 12 4 5 5 10 12 12 21 19 19 14 10 11 11 14 15 16 17 17 19 21 22 22 24 26 27 29 31 33 33 33 34 32
24 9 11 14 4 9 11 14 18 16 7 12 17 6 4 3 9 13 18 16 13 11 10 9 13 15 17 18 20 19 21 23 25 26 27 28 29 30 33 34 36 36 35 37
13 10 16 17 4 7 11 19 21 20 23 10 11 16 7 10 11 17 18 12 7 3 5 11 15 16 16 18 20 22 26 28 28 29 30 31 32 32 34 35 35 36 38 38
3 7 18 20 11 8 5 16 20 25 23 19 4 6 7 11 14 13 13 11 8 3 4 7 8 14 19 22 25 27 30 32 33 34 34 34 35 36 36 36 38 38 38 39
9 5 4 20 9 8 8 21 19 19 20 20 16 17 3 9 13 11 9 9 4 2 3 8 12 17 22 25 28 32 33 34 34 35 37 38 38 38 38 39 39 38 40 41
10 18 11 4 7 16 10 12 20 23 18 16 2 6 12 15 18 14 9 8 6 3 3 8 13 18 22 25 27 29 30 33 35 36 38 40 41 43 43 41 41 41 40 41
18 15 7 8 9 5 4 5 8 14 15 8 11 8 14 24 18 6 7 6 3 1 6 11 15 19 21 24 27 29 30 33 36 38 39 39 40 43 44 44 44 44 44 43
15 15 10 3 7 11 3 2 3 8 7 10 10 15 21 19 5 4 10 4 1 4 8 11 14 17 19 23 25 28 31 33 36 38 39 40 40 41 43 44 45 43 42 44
14 8 18 11 4 4 2 2 1 9 4 11 17 19 21 4 4 16 10 3 2 5 8 11 15 19 21 23 25 26 28 31 34 36 39 41 41 41 41 42 40 41 40 38
7 6 5 4 1 8 2 1 7 4 10 16 20 20 18 17 15 11 7 3 2 5 9 12 14 16 18 21 22 25 29 31 34 38 40 41 41 41 41 41 39 37 35 34
5 1 5 3 3 3 4 5 8 11 19 16 22 19 20 18 12 8 4 2 1 4 7 10 12 14 16 19 23 26 29 33 36 37 39 40 39 38 36 36 35 32 28 29
2 2 3 4 2 3 5 11 13 20 22 20 19 18 15 14 11 8 5 3 1 4 7 9 10 13 16 19 21 25 28 29 32 34 36 37 37 35 32 29 27 20 29 32
0 3 6 3 3 5 4 11 18 22 21 19 17 15 13 12 10 8 6 4 4 5 7 9 11 14 16 18 20 22 24 25 26 28 31 34 34 34 33 29 28 23 19 21
4 4 4 4 11 3 11 24 21 22 20 17 15 15 12 10 9 8 6 5 5 5 6 8 10 13 15 16 17 18 20 23 25 27 28 30 32 32 32 32 29 22 20 17
Wind_Direction
179 201 210 208 229 241 256 231 284 338 274 307 276 285 290 292 292 280 275 278 284 285 285 280 283 278 281 278 273 268 260 259 257 257 256 257 260 259 260 261 266 275 278 273
148 232 224 252 231 232 241 259 259 256 260 280 268 280 281 274 266 275 277 279 280 285 284 288 286 279 282 270 270 269 271 273 266 263 264 263 267 265 267 270 270 268 269 275
221 168 199 194 203 195 204 219 224 244 292 271 284 280 264 256 258 266 269 275 276 274 275 281 289 295 290 274 258 266 269 268 271 266 262 266 268 267 271 274 273 275 269 266
241 242 154 181 221 191 244 196 212 221 266 272 135 291 276 277 276 263 267 272 272 274 275 274 285 293 294 287 274 262 264 261 263 269 269 268 271 272 280 283 284 283 284 283
223 179 192 200 211 182 242 175 199 201 217 320 206 253 283 57 285 273 254 265 273 279 279 285 185 143 123 106 56 50 346 266 263 265 268 270 271 275 280 282 284 284 285 285
222 151 184 205 177 185 156 158 48 43 156 247 175 194 270 266 233 269 284 303 298 290 142 132 124 119 112 100 101 96 93 192 277 270 268 268 273 276 277 279 283 283 285 286
195 195 187 165 126 111 152 154 238 216 220 255 208 210 250 274 261 247 272 283 120 118 117 116 108 95 90 84 67 55 34 15 3 335 318 306 297 289 285 286 285 284 282 282
201 229 187 181 202 174 198 192 207 215 208 256 53 235 253 240 279 283 292 179 121 101 103 98 88 80 72 63 55 48 41 29 14 359 343 326 313 312 314 311 305 297 288 283
181 231 103 192 155 171 186 210 220 298 115 276 235 283 290 269 309 349 359 131 114 112 100 88 79 71 63 54 46 37 32 27 21 15 8 357 340 324 317 314 312 311 306 299
204 283 212 183 145 164 182 157 166 192 234 235 229 280 241 292 323 27 82 100 107 100 94 85 75 68 60 50 40 31 23 17 11 6 0 357 353 347 338 327 318 313 311 308
173 94 166 132 201 188 181 206 169 139 196 214 229 248 215 234 287 119 97 93 98 90 79 70 63 56 51 39 28 22 13 7 3 358 353 348 345 343 340 336 331 323 315 311
202 185 209 208 177 208 215 223 208 215 204 233 227 264 6 133 178 127 119 115 103 89 78 62 49 39 36 26 16 12 5 1 359 355 351 346 341 339 338 335 332 329 324 320
170 212 215 234 255 144 208 209 206 211 110 219 208 261 11 98 89 111 119 121 120 104 75 48 30 21 19 12 7 3 357 355 352 348 345 339 336 335 334 333 331 329 325 322
168 204 217 222 198 143 206 201 208 207 224 237 226 240 183 134 132 127 122 118 102 71 50 19 9 4 360 356 355 353 351 349 345 340 337 335 333 331 328 326 325 325 323 321
210 227 218 233 251 186 200 206 203 205 219 207 228 213 192 179 166 154 145 136 116 51 355 348 338 330 339 341 344 343 341 340 339 336 335 332 331 328 324 320 319 318 319 318
241 244 212 220 214 209 237 208 205 210 223 231 248 259 199 169 159 149 161 164 158 114 345 341 325 328 337 337 339 337 338 337 337 335 334 332 329 326 324 320 317 316 315 314
233 244 258 220 196 187 235 219 203 213 218 213 219 228 130 145 153 154 165 148 134 126 327 328 326 333 338 337 336 336 337 336 336 335 335 334 331 328 326 323 320 317 313 311
215 221 218 249 183 211 239 180 196 203 211 206 138 166 169 143 122 131 141 139 124 108 301 313 324 333 333 334 334 334 336 336 336 336 337 336 333 330 329 326 323 319 315 311
216 219 212 221 232 324 274 197 175 182 217 184 180 135 124 130 128 100 138 138 130 323 316 322 329 332 336 337 342 344 342 341 340 340 340 338 336 332 330 327 324 322 316 312
222 220 205 139 196 222 216 138 58 96 257 181 163 151 145 144 169 156 180 170 258 314 317 329 336 340 342 345 347 346 344 344 344 344 343 342 340 335 331 327 324 322 317 312
200 224 224 194 201 253 182 293 177 145 241 128 145 149 158 134 116 150 168 190 279 316 330 340 345 349 349 348 351 350 350 352 350 348 347 346 343 339 336 329 327 323 319 313
199 173 195 87 186 240 21 124 172 99 101 142 145 151 144 143 138 148 157 184 296 328 344 351 358 2 2 358 358 0 359 357 356 355 351 348 346 343 340 335 332 327 325 323
198 213 166 167 206 36 29 89 132 153 140 139 138 134 147 146 145 151 158 164 345 359 6 11 15 17 12 9 6 5 4 4 2 359 356 353 350 346 343 339 339 342 344 341
119 11 84 119 154 136 113 111 140 156 145 143 141 144 148 145 149 151 153 145 85 33 30 26 22 21 20 17 14 10 8 7 4 2 1 0 357 352 351 348 352 3 351 337
44 89 120 68 111 105 189 171 146 140 142 145 143 142 147 152 148 151 146 126 89 56 41 32 28 27 24 20 15 9 6 5 5 4 4 7 5 3 358 355 355 344 330 348
187 160 174 201 165 151 157 167 157 148 147 147 147 144 145 146 140 140 134 119 100 74 53 38 30 27 23 18 12 6 5 5 3 6 7 7 7 8 6 0 354 355 348 329
Height
1541 1545 1543 1546 1546 1549 1551 1555 1558 1556 1551 1551 1546 1537 1535 1533 1532 1531 1529 1527 1525 1522 1523 1521 1521 1521 1521 1519 1518 1517 1517 1519 1521 1522 1522 1522 1520 1521 1522 1524 1527 1527 1527 1528
1543 1538 1539 1540 1541 1544 1548 1550 1551 1555 1552 1551 1547 1531 1531 1530 1528 1527 1524 1521 1519 1517 1514 1514 1514 1513 1512 1512 1512 1512 1513 1515 1517 1517 1517 1517 1518 1517 1518 1519 1521 1522 1523 1521
1535 1533 1534 1540 1544 1548 1550 1553 1555 1556 1552 1547 1547 1525 1526 1521 1519 1516 1517 1514 1512 1511 1509 1508 1508 1507 1505 1502 1504 1507 1508 1510 1511 1512 1512 1513 1514 1514 1513 1513 1515 1515 1518 1516
1536 1532 1534 1539 1540 1546 1548 1548 1551 1554 1556 1555 1545 1535 1521 1519 1513 1511 1509 1509 1505 1503 1503 1504 1504 1503 1501 1499 1499 1501 1502 1504 1505 1506 1506 1507 1508 1509 1507 1509 1508 1508 1508 1509
1527 1527 1530 1535 1535 1543 1542 1544 1548 1550 1553 1553 1548 1552 1511 1512 1514 1505 1503 1500 1500 1500 1500 1501 1502 1500 1500 1499 1498 1498 1499 1500 1501 1503 1503 1503 1503 1503 1502 1502 1500 1500 1500 1500
1525 1525 1527 1528 1532 1536 1540 1544 1547 1550 1550 1546 1541 1549 1516 1515 1506 1501 1500 1499 1497 1497 1498 1501 1501 1500 1498 1499 1499 1499 1500 1500 1500 1500 1500 1500 1499 1498 1496 1496 1494 1494 1492 1492
1522 1524 1525 1527 1533 1535 1538 1544 1546 1548 1544 1536 1529 1538 1511 1503 1500 1499 1497 1498 1500 1500 1500 1502 1502 1500 1499 1500 1500 1500 1500 1500 1500 1499 1499 1498 1496 1495 1493 1490 1488 1488 1486 1485
1518 1522 1521 1519 1522 1531 1534 1539 1547 1547 1547 1537 1532 1528 1508 1497 1495 1494 1495 1495 1502 1503 1503 1503 1503 1501 1500 1500 1501 1501 1500 1500 1500 1499 1497 1496 1494 1492 1489 1487 1483 1481 1481 1478
1515 1512 1510 1512 1514 1521 1530 1531 1526 1541 1551 1540 1534 1518 1501 1495 1495 1494 1496 1500 1501 1503 1505 1506 1504 1502 1502 1501 1500 1501 1501 1500 1498 1497 1496 1494 1492 1489 1486 1484 1481 1477 1474 1470
1502 1513 1509 1510 1513 1515 1517 1519 1530 1533 1532 1530 1523 1526 1508 1497 1494 1496 1501 1502 1504 1506 1506 1505 1504 1502 1502 1502 1502 1501 1500 1498 1497 1495 1494 1491 1489 1486 1483 1480 1476 1473 1469 1465
1498 1502 1511 1510 1504 1504 1515 1516 1518 1525 1525 1520 1534 1515 1496 1494 1494 1498 1502 1503 1504 1506 1505 1505 1505 1505 1503 1502 1502 1500 1498 1496 1494 1492 1489 1488 1486 1483 1479 1476 1472 1468 1465 1461
1490 1500 1507 1500 1499 1500 1500 1501 1507 1513 1525 1521 1519 1500 1492 1490 1496 1486 1496 1502 1503 1506 1505 1506 1506 1505 1502 1502 1501 1498 1497 1496 1492 1489 1486 1484 1481 1478 1474 1470 1466 1463 1459 1456
1487 1492 1504 1496 1502 1499 1497 1500 1500 1503 1509 1509 1513 1501 1496 1494 1495 1497 1495 1499 1497 1502 1506 1505 1505 1503 1501 1501 1500 1498 1497 1494 1491 1488 1485 1482 1478 1473 1469 1464 1460 1456 1452 1450
1479 1481 1479 1473 1479 1484 1490 1491 1493 1496 1502 1492 1494 1494 1499 1498 1496 1498 1499 1500 1501 1501 1501 1504 1503 1503 1500 1500 1498 1496 1494 1491 1487 1485 1482 1479 1474 1468 1464 1460 1455 1451 1447 1442
1475 1473 1477 1474 1478 1478 1475 1477 1484 1486 1481 1491 1481 1488 1488 1494 1495 1494 1495 1496 1496 1498 1501 1498 1498 1500 1498 1498 1495 1493 1491 1487 1484 1480 1476 1473 1467 1462 1459 1455 1451 1446 1441 1436
1473 1466 1469 1469 1474 1476 1475 1472 1472 1473 1476 1478 1484 1485 1479 1487 1493 1495 1494 1496 1497 1497 1498 1495 1498 1499 1494 1493 1490 1488 1486 1483 1478 1474 1470 1465 1460 1455 1451 1448 1443 1438 1433 1429
1471 1468 1459 1454 1462 1470 1472 1460 1463 1464 1468 1468 1474 1467 1477 1483 1489 1493 1493 1490 1492 1492 1495 1498 1498 1497 1492 1489 1485 1483 1479 1477 1472 1468 1462 1457 1452 1447 1443 1440 1436 1430 1425 1420
1457 1459 1460 1459 1464 1455 1442 1444 1448 1454 1455 1463 1469 1470 1471 1477 1484 1490 1493 1491 1492 1493 1496 1497 1496 1493 1490 1486 1482 1480 1476 1474 1468 1462 1457 1450 1445 1440 1435 1433 1427 1422 1417 1412
1448 1449 1450 1450 1451 1453 1444 1445 1447 1447 1448 1454 1460 1470 1474 1477 1483 1491 1491 1491 1492 1493 1495 1494 1492 1490 1486 1483 1478 1475 1473 1468 1463 1456 1451 1447 1441 1434 1428 1423 1418 1413 1407 1403
1439 1440 1439 1459 1448 1440 1433 1440 1439 1440 1452 1453 1456 1464 1471 1476 1482 1486 1489 1490 1491 1491 1491 1491 1490 1487 1483 1478 1475 1472 1470 1463 1458 1453 1448 1442 1434 1429 1423 1417 1410 1406 1401 1394
1429 1429 1428 1433 1444 1442 1439 1444 1440 1449 1447 1451 1455 1461 1467 1472 1478 1482 1485 1487 1488 1488 1489 1487 1484 1479 1476 1475 1473 1471 1467 1461 1456 1450 1441 1433 1428 1422 1416 1410 1406 1399 1394 1389
1418 1420 1421 1438 1439 1429 1446 1442 1436 1445 1449 1453 1457 1461 1466 1472 1477 1481 1483 1484 1485 1485 1485 1483 1482 1480 1477 1474 1472 1468 1463 1457 1450 1443 1436 1430 1425 1418 1413 1406 1400 1397 1391 1381
1414 1416 1421 1427 1431 1447 1444 1444 1446 1448 1449 1456 1458 1463 1467 1472 1476 1479 1482 1483 1484 1484 1484 1482 1481 1479 1477 1472 1467 1462 1457 1451 1446 1441 1436 1430 1424 1418 1412 1406 1400 1394 1388 1383
1425 1424 1427 1437 1447 1449 1448 1446 1449 1451 1453 1456 1460 1464 1469 1472 1477 1480 1481 1482 1483 1483 1482 1480 1479 1476 1472 1468 1464 1459 1454 1451 1447 1442 1437 1430 1423 1418 1413 1408 1401 1397 1391 1387
1424 1426 1435 1448 1451 1451 1451 1452 1451 1451 1454 1458 1462 1464 1467 1472 1475 1478 1479 1480 1480 1480 1480 1478 1475 1472 1469 1466 1462 1459 1455 1451 1447 1444 1437 1430 1425 1417 1410 1409 1401 1397 1394 1390
1424 1423 1425 1421 1427 1433 1438 1446 1449 1451 1455 1458 1460 1464 1467 1470 1472 1475 1476 1477 1477 1477 1476 1475 1473 1471 1468 1466 1463 1460 1456 1451 1447 1442 1436 1431 1424 1418 1411 1405 1402 1400 1393 1388